Regional Weather Roundup
Issued by NWS

Home | Current Version | Previous Version | Graphics & Text | Print | Product List | Glossary On
Versions: 1 2 3 4 5 6 7 8 9 10 11 12 13 14 15 16 17 18 19 20 21 22 23 24 25 26 27 28 29 30 31 32 33 34 35 36 37 38 39 40 41 42 43 44 45 46 47 48 49 50
000
ASUS43 KBIS 070310
RWRND

NORTH DAKOTA REGIONAL WEATHER ROUNDUP
NATIONAL WEATHER SERVICE BISMARCK ND
900 PM CST SAT FEB 06 2016

NOTE: "FAIR" INDICATES FEW OR NO CLOUDS BELOW 12,000 FEET WITH NO
SIGNIFICANT WEATHER AND/OR OBSTRUCTIONS TO VISIBILITY.


NDZ001>003-009>011-017-070400-
NORTHWEST NORTH DAKOTA

CITY           SKY/WX    TMP DP  RH WIND       PRES   REMARKS
WILLISTON      CLEAR     38  24  57 W18G28    29.80R
MINOT          CLOUDY    40  31  70 W24G31    29.61R
MINOT AFB      CLOUDY    37  37  99 W22G28    29.59R
$$

NDZ018>021-031>035-040>046-070400-
SOUTHWEST NORTH DAKOTA

CITY           SKY/WX    TMP DP  RH WIND       PRES   REMARKS
BISMARCK       CLOUDY    46  30  53 NW22G35   29.73R
DICKINSON      CLEAR     36  24  62 W31G43    29.80R
GARRISON         N/A     39  32  76 W26G41    29.66R
HETTINGER ARPT CLEAR     38  23  55 W31G43    29.87R
$$

NDZ004>008-012>016-024-026-027-054-070400-
NORTHEAST NORTH DAKOTA

CITY           SKY/WX    TMP DP  RH WIND       PRES   REMARKS
GRAND FORKS    CLOUDY    40  31  70 SW16      29.51F
GRND FRKS AFB  MOCLDY    40  31  71 SW15      29.51F
DEVILS LAKE    CLOUDY    38  30  73 W21       29.51
$$

NDZ022-023-025-028>030-036>039-047>053-070400-
SOUTHEAST NORTH DAKOTA

CITY           SKY/WX    TMP DP  RH WIND       PRES   REMARKS
FARGO          MOCLDY    39  33  79 SW15      29.61S
JAMESTOWN      PTCLDY    40  29  64 SW18      29.60F
$$




USA.gov is the U.S. government's official web portal to all federal, state and local government web resources and services.